Update 04.10.19: Almanach/History: Die WU Grafiken funktionieren wieder!!
Besuchen Sie den Menüpunkt "Almanach / History" WU-Grafiken um Wetterdaten über die Jahre zu vergleichen!
Die Daten stammen von meiner Wetterstation und wurden von Weatherunderground aufgezeichnet.

Rindlberg West Mehr Informationen Rindlberg West


Stuetzi - Rindlberg Ost Mehr Informationen Stuetzi - Rindlberg Ost


Regenradar Mehr Informationen rain snow radar


Sie finden meine Wetter-Infos auch auf:

Weather Underground

AWEKAS



Wählen sie eine andere Periode ( ausblenden )

Einheiten Zeitraum Benutzerdef. Zeitraum Direkt zu
metrisch Englisch Beide
Täglich Wöchentlich Monatlich Jährlich
Beide Datumseingaben nutzen um einen Bereich festzulegen
vorheriger Tag
Mit diesem Datum

WU Grafiken für diese Periode ( klicken )


Täglich Zusammenfassung für Freitag 24 Januar 2020
Zeit Temp. ( °C ) Taupt. ( °C ) Wind ( km/h ) von Windböen ( km/h ) Luftdruck ( hPa ) Luftf.( % ) Regenrate ( cm )
Hoch2,3 -2,5 27,4 WSW ( 491/1181 ) 33,8 1020,9 90 -
Durchchnittswerte-3,9 -7,4 4,1 Windstille #176/285 7,1 1019,6 77 -
Tief-9,0 -11,8 -   0,0 1018,8 67 -
Täglich tabellarische Details für Freitag 24 Januar 2020
Zeit Temp. ( °C ) Taupt. ( °C ) Wind ( km/h ) von Windböen ( km/h ) Luftdruck ( hPa ) Luftf.( % ) Regenrate ( cm )
00:00 -7,0 -9,7   Windstille   1020,9 81 -
00:05 -7,2 -9,9   Windstille   1020,9 81 -
00:10 -7,2 -9,9   Windstille   1020,9 81 -
00:15 -7,3 -10,0   Windstille   1020,9 81 -
00:20 -7,3 -10,0   Windstille   1020,9 81 -
00:25 -7,3 -10,0   Windstille   1020,9 81 -
00:30 -7,4 -10,1   Windstille   1020,9 81 -
00:35 -7,4 -10,1   Windstille   1020,9 81 -
00:40 -7,4 -10,1   Windstille   1020,9 81 -
00:45 -7,5 -10,2   Windstille   1020,9 81 -
00:50 -7,5 -10,2   Windstille   1020,9 81 -
00:55 -7,5 -10,2   Windstille   1020,9 81 -
01:00 -7,6 -10,3   Windstille   1020,9 81 -
01:05 -7,7 -10,4   Windstille   1020,9 81 -
01:10 -7,8 -10,5   Windstille   1020,9 81 -
01:15 -7,8 -10,5   Windstille   1020,9 81 -
01:20 -7,8 -10,5   Windstille   1020,9 81 -
01:25 -8,0 -10,7   Windstille   1020,9 81 -
01:30 -8,0 -10,7   Windstille   1020,9 81 -
01:35 -8,0 -10,7   Windstille 4,8 1019,9 81 -
01:40 -8,1 -10,8   Windstille 4,8 1019,9 81 -
01:45 -8,1 -10,8   Windstille 3,2 1019,9 81 -
01:50 -8,1 -10,8   Windstille   1019,9 81 -
01:55 -8,1 -10,8   Windstille   1019,9 81 -
02:00 -8,2 -10,9   Windstille   1019,9 81 -
02:05 -8,2 -10,9   Windstille   1019,9 81 -
02:10 -8,3 -11,0   Windstille   1019,9 81 -
02:15 -8,3 -11,0   Windstille   1019,9 81 -
02:20 -8,4 -11,1   Windstille   1019,9 81 -
02:25 -8,4 -11,1   Windstille   1019,9 81 -
02:30 -8,5 -11,2   Windstille 4,8 1019,9 81 -
02:35 -8,6 -11,4   Windstille 4,8 1019,9 80 -
02:40 -8,7 -11,5   Windstille   1019,9 80 -
02:45 -8,7 -11,5   Windstille   1019,9 80 -
02:50 -8,7 -11,5   Windstille   1019,9 80 -
02:55 -8,8 -11,6   Windstille   1019,9 80 -
03:00 -8,8 -11,6   Windstille   1019,9 80 -
03:05 -8,9 -11,7   Windstille   1019,9 80 -
03:10 -9,0 -11,8   Windstille   1019,9 80 -
03:15 -8,9 -11,7   Windstille 3,2 1019,9 80 -
03:20 -9,0 -11,8   Windstille 3,2 1019,9 80 -
03:25 -9,0 -11,8   Windstille 3,2 1019,9 80 -
03:30 -8,9 -11,7   Windstille   1019,9 80 -
03:35 -8,9 -11,7   Windstille   1019,9 80 -
03:40 -8,8 -11,5   Windstille   1019,9 81 -
03:45 -8,9 -11,6   Windstille   1019,9 81 -
03:50 -8,7 -11,4   Windstille   1019,9 81 -
03:55 -8,7 -11,4   Windstille   1019,9 81 -
04:00 -8,7 -11,4   Windstille   1019,9 81 -
04:05 -8,6 -11,3   Windstille   1019,9 81 -
04:10 -8,5 -11,2   Windstille   1019,9 81 -
04:15 -8,5 -11,0   Windstille   1019,9 82 -
04:20 -8,5 -11,0   Windstille   1019,9 82 -
04:25 -8,6 -11,1   Windstille   1019,9 82 -
04:30 -8,5 -11,0   Windstille   1019,9 82 -
04:35 -8,5 -11,0   Windstille   1019,9 82 -
04:40 -8,5 -11,0   Windstille   1019,9 82 -
04:45 -8,5 -11,0   Windstille   1019,9 82 -
04:50 -8,5 -11,0   Windstille   1019,9 82 -
04:55 -8,5 -11,0   Windstille   1019,9 82 -
05:00 -8,5 -11,0   Windstille   1019,9 82 -
05:05 -8,5 -11,0   Windstille   1019,9 82 -
05:10 -8,5 -11,0   Windstille   1019,9 82 -
05:15 -8,6 -11,1   Windstille   1019,9 82 -
05:20 -8,6 -11,1   Windstille   1019,9 82 -
05:25 -8,6 -11,1   Windstille   1019,9 82 -
05:30 -8,6 -11,1   Windstille   1019,9 82 -
05:35 -8,6 -11,1   Windstille   1019,9 82 -
05:40 -8,6 -11,1   Windstille   1019,9 82 -
05:45 -8,6 -11,1   Windstille   1019,9 82 -
05:50 -8,6 -11,1   Windstille   1019,9 82 -
05:55 -8,6 -11,1   Windstille   1019,9 82 -
06:00 -8,7 -11,2   Windstille   1019,9 82 -
06:05 -8,7 -11,2   Windstille   1019,9 82 -
06:10 -8,7 -11,2   Windstille   1019,9 82 -
06:15 -8,7 -11,2   Windstille   1019,9 82 -
06:20 -8,7 -11,2   Windstille   1019,9 82 -
06:25 -8,7 -11,2   Windstille   1019,9 82 -
06:30 -8,6 -11,1 3,2 Norden   1019,9 82 -
06:35 -8,4 -10,9   Windstille 4,8 1019,9 82 -
06:40 -8,2 -10,6   Windstille 4,8 1019,9 83 -
06:45 -8,0 -10,4   Windstille 4,8 1019,9 83 -
06:50 -7,8 -10,2   Windstille   1019,9 83 -
06:55 -7,6 -10,0   Windstille   1019,9 83 -
07:00 -7,5 -9,7   Windstille   1019,9 84 -
07:05 -7,4 -9,6   Windstille   1019,9 84 -
07:10 -7,3 -9,5   Windstille   1019,9 84 -
07:15 -7,2 -9,4   Windstille   1019,9 84 -
07:20 -7,1 -9,3   Windstille   1019,9 84 -
07:25 -7,0 -9,2   Windstille   1019,9 84 -
07:30 -7,0 -9,2   Windstille   1019,9 84 -
07:35 -7,0 -9,2   Windstille   1019,9 84 -
07:40 -6,9 -9,1   Windstille   1019,9 84 -
07:45 -6,9 -9,1   Windstille   1019,9 84 -
07:50 -6,9 -9,1   Windstille   1019,9 84 -
07:55 -6,9 -9,1   Windstille   1019,9 84 -
08:00 -6,8 -9,0   Windstille   1019,9 84 -
08:05 -6,8 -9,0   Windstille   1019,9 84 -
08:10 -6,8 -9,0   Windstille   1019,9 84 -
08:15 -6,8 -9,0   Windstille   1019,9 84 -
08:20 -6,7 -8,9   Windstille   1020,9 84 -
08:25 -6,6 -8,9   Windstille   1020,9 84 -
08:30 -6,6 -8,9   Windstille 4,8 1020,9 84 -
08:35 -6,5 -8,5   Windstille 4,8 1020,9 86 -
08:40 -6,4 -8,4   Windstille 4,8 1020,9 86 -
08:45 -6,3 -8,3   Windstille   1020,9 86 -
08:50 -6,1 -8,1   Windstille   1020,9 86 -
08:55 -6,0 -8,0   Windstille   1020,9 86 -
09:00 -5,9 -7,9   Windstille   1020,9 86 -
09:05 -5,8 -7,8   Windstille   1020,9 86 -
09:10 -5,7 -7,7   Windstille   1020,9 86 -
09:15 -5,5 -7,5   Windstille   1020,9 86 -
09:20 -5,4 -7,4   Windstille   1020,9 86 -
09:25 -5,3 -7,3   Windstille   1020,9 86 -
09:30 -5,2 -7,2   Windstille 3,2 1020,9 86 -
09:35 -5,0 -7,0 4,8 SO 3,2 1020,9 86 -
09:40 -4,7 -6,5 3,2 SO 4,8 1020,9 87 -
09:45 -4,3 -6,0   Windstille 4,8 1020,9 88 -
09:50 -3,6 -5,1   Windstille 4,8 1020,9 89 -
09:55 -3,2 -4,6   Windstille 4,8 1020,9 90 -
10:00 -2,7 -4,1   Windstille   1020,9 90 -
10:05 -2,4 -3,8   Windstille   1020,9 90 -
10:10 -2,1 -3,5   Windstille   1020,9 90 -
10:15 -1,7 -3,1   Windstille   1020,9 90 -
10:20 -1,3 -2,9   Windstille   1020,9 89 -
10:25 -1,0 -2,6 4,8 Süden 4,8 1020,9 89 -
10:30 -0,6 -2,5 6,4 SW 4,8 1020,9 87 -
10:35 -0,3 -2,7 6,4 SW 6,4 1020,9 84 -
10:40 0,0 -2,5 3,2 WSW 6,4 1020,9 83 -
10:45 0,1 -2,9 6,4 WSW 6,4 1020,9 80 -
10:50 0,3 -2,9 6,4 WSW 6,4 1020,9 79 -
10:55 0,5 -3,2 4,8 WSW 8,0 1020,9 76 -
11:00 0,7 -3,2 6,4 SW 8,0 1020,9 75 -
11:05 0,8 -3,5 8,0 WSW 8,0 1020,9 73 -
11:10 0,9 -3,6 8,0 SW 9,7 1020,9 72 -
11:15 0,9 -4,0 9,7 WSW 12,9 1020,9 70 -
11:20 1,0 -3,9 12,9 WSW 14,5 1020,9 70 -
11:25 1,0 -4,0 12,9 WSW 14,5 1020,9 69 -
11:30 1,1 -4,0 9,7 SW 14,5 1020,9 69 -
11:35 1,1 -4,1 9,7 WNW 17,7 1019,9 68 -
11:40 1,1 -4,1 12,9 WSW 17,7 1019,9 68 -
11:45 1,2 -4,1 17,7 WNW 17,7 1019,9 68 -
11:50 1,3 -4,0 12,9 WSW 19,3 1019,9 68 -
11:55 1,3 -4,0 17,7 WSW 19,3 1019,9 68 -
12:00 1,3 -4,0 12,9 SW 19,3 1019,9 68 -
12:05 1,4 -3,9 12,9 WSW 22,5 1019,9 68 -
12:10 1,4 -3,9 12,9 Westen 24,1 1019,9 68 -
12:15 1,5 -3,8 12,9 WSW 24,1 1019,9 68 -
12:20 1,6 -3,7 12,9 WSW 24,1 1019,9 68 -
12:25 1,6 -3,7 9,7 SW 17,7 1019,9 68 -
12:30 1,6 -3,7 12,9 Westen 17,7 1019,9 68 -
12:35 1,6 -3,5 12,9 Westen 17,7 1019,9 69 -
12:40 1,7 -3,4 16,1 WSW 17,7 1019,9 69 -
12:45 1,9 -3,4 19,3 NW 17,7 1019,9 68 -
12:50 2,0 -3,3 27,4 NW 20,9 1019,9 68 -
12:55 2,0 -3,3 19,3 Westen 27,4 1019,9 68 -
13:00 2,0 -3,5 12,9 SW 27,4 1019,9 67 -
13:05 2,1 -3,4 19,3 WSW 27,4 1019,9 67 -
13:10 2,1 -3,4 17,7 WSW 33,8 1019,9 67 -
13:15 2,0 -3,5 17,7 Westen 33,8 1019,9 67 -
13:20 2,1 -3,4 20,9 WNW 33,8 1019,9 67 -
13:25 2,2 -3,3 12,9 WSW 29,0 1019,9 67 -
13:30 2,2 -3,3 16,1 WSW 27,4 1019,9 67 -
13:35 2,3 -3,2 12,9 NW 24,1 1018,8 67 -
13:40 2,3 -3,2 14,5 Westen 27,4 1018,8 67 -
13:45 2,3 -3,2 20,9 WNW 27,4 1018,8 67 -
13:50 2,3 -3,2 20,9 SW 24,1 1018,8 67 -
13:55 2,3 -3,2 19,3 NW 24,1 1018,8 67 -
14:00 2,3 -3,2 17,7 WSW 24,1 1018,8 67 -
14:05 2,3 -3,2 17,7 Westen 24,1 1018,8 67 -
14:10 2,2 -3,3 17,7 Westen 24,1 1018,8 67 -
14:15 2,2 -3,3 17,7 WSW 24,1 1018,8 67 -
14:20 2,2 -3,3 20,9 Westen 24,1 1018,8 67 -
14:25 2,2 -3,3 14,5 WSW 24,1 1018,8 67 -
14:30 2,2 -3,3 17,7 WSW 24,1 1018,8 67 -
14:35 2,2 -3,3 20,9 WSW 32,2 1018,8 67 -
14:40 2,2 -3,3 17,7 Westen 32,2 1018,8 67 -
14:45 2,1 -3,4 12,9 WSW 32,2 1018,8 67 -
14:50 2,0 -3,5 16,1 SW 27,4 1018,8 67 -
14:55 2,0 -3,5 20,9 SSW 24,1 1018,8 67 -
15:00 1,9 -3,6 16,1 WSW 24,1 1018,8 67 -
15:05 1,8 -3,7 17,7 Westen 27,4 1018,8 67 -
15:10 1,8 -3,5 14,5 WSW 27,4 1018,8 68 -
15:15 1,8 -3,7 16,1 WSW 27,4 1018,8 67 -
15:20 1,7 -3,6 17,7 WSW 20,9 1018,8 68 -
15:25 1,7 -3,6 16,1 WSW 20,9 1018,8 68 -
15:30 1,6 -3,7 17,7 WSW 17,7 1018,8 68 -
15:35 1,6 -3,7 12,9 WSW 22,5 1018,8 68 -
15:40 1,5 -3,8 9,7 Westen 22,5 1018,8 68 -
15:45 1,4 -3,9 8,0 WNW 22,5 1018,8 68 -
15:50 1,4 -3,9 9,7 WNW 17,7 1018,8 68 -
15:55 1,3 -4,0 8,0 Westen 17,7 1018,8 68 -
16:00 1,2 -4,1 14,5 Westen 16,1 1018,8 68 -
16:05 1,0 -4,2 12,9 Westen 17,7 1018,8 68 -
16:10 0,9 -4,3 9,7 WSW 17,7 1018,8 68 -
16:15 0,7 -4,5 8,0 Westen 17,7 1018,8 68 -
16:20 0,6 -4,6 9,7 Westen 16,1 1018,8 68 -
16:25 0,5 -4,7 8,0 WSW 12,9 1018,8 68 -
16:30 0,3 -4,7 9,7 WNW 12,9 1018,8 69 -
16:35 0,1 -4,9 9,7 WSW 16,1 1018,8 69 -
16:40 0,0 -5,0 6,4 WNW 16,1 1018,8 69 -
16:45 0,0 -5,0 6,4 WNW 16,1 1018,8 69 -
16:50 -0,2 -5,2 6,4 NW 14,5 1018,8 69 -
16:55 -0,3 -5,3 4,8 Westen 12,9 1018,8 69 -
17:00 -0,5 -5,5 4,8 WSW 11,3 1018,8 69 -
17:05 -0,6 -5,6 3,2 WNW 8,0 1018,8 69 -
17:10 -0,7 -5,5   Windstille 8,0 1018,8 70 -
17:15 -0,9 -5,7 4,8 WSW 8,0 1018,8 70 -
17:20 -1,0 -5,6   Windstille 6,4 1018,8 71 -
17:25 -1,1 -5,7 3,2 WSW 6,4 1018,8 71 -
17:30 -1,3 -5,9   Windstille 6,4 1018,8 71 -
17:35 -1,4 -6,0   Windstille 6,4 1018,8 71 -
17:40 -1,6 -6,2   Windstille 6,4 1018,8 71 -
17:45 -1,7 -6,3 4,8 WSW 4,8 1018,8 71 -
17:50 -1,9 -6,5 6,4 NW 6,4 1018,8 71 -
17:55 -1,9 -6,3 6,4 Westen 6,4 1018,8 72 -
18:00 -2,0 -6,4 4,8 Westen 8,0 1018,8 72 -
18:05 -2,2 -6,6 4,8 Westen 8,0 1018,8 72 -
18:10 -2,3 -6,7 4,8 Westen 8,0 1018,8 72 -
18:15 -2,4 -6,8 4,8 WNW 8,0 1018,8 72 -
18:20 -2,5 -6,9   Windstille 9,7 1018,8 72 -
18:25 -2,6 -6,9 3,2 Westen 9,7 1018,8 72 -
18:30 -2,5 -6,9 4,8 NW 9,7 1018,8 72 -
18:35 -2,5 -6,9   Windstille 6,4 1018,8 72 -
18:40 -2,6 -6,9   Windstille 6,4 1018,8 72 -
18:45 -2,7 -7,2   Windstille 6,4 1018,8 71 -
18:50 -2,9 -7,4   Windstille 4,8 1018,8 71 -
18:55 -3,0 -7,5   Windstille   1018,8 71 -
19:00 -3,1 -7,6   Windstille   1018,8 71 -
19:05 -3,2 -7,5   Windstille   1018,8 72 -
19:10 -3,4 -7,7   Windstille   1018,8 72 -
19:15 -3,5 -7,8   Windstille   1018,8 72 -
19:20 -3,6 -7,9   Windstille   1018,8 72 -
19:25 -3,7 -8,0 6,4 SW   1018,8 72 -
19:30 -3,7 -7,8 4,8 WSW 6,4 1018,8 73 -
19:35 -3,6 -7,7 4,8 NW 8,0 1018,8 73 -
19:40 -3,3 -7,3 4,8 Norden 8,0 1018,8 74 -
19:45 -3,1 -7,1 4,8 NW 9,7 1018,8 74 -
19:50 -3,2 -7,2   Windstille 9,7 1018,8 74 -
19:55 -3,2 -7,2   Windstille 9,7 1018,8 74 -
20:00 -3,3 -7,4 4,8 WNW 8,0 1018,8 73 -
20:05 -3,4 -7,5 3,2 WNW 4,8 1018,8 73 -
20:10 -3,5 -7,6 4,8 NO 6,4 1018,8 73 -
20:15 -3,5 -7,5 3,2 NO 6,4 1018,8 74 -
20:20 -3,5 -7,5 3,2 NW 6,4 1018,8 74 -
20:25 -3,5 -7,5   Windstille 6,4 1018,8 74 -
20:30 -3,6 -7,6   Windstille 6,4 1018,8 74 -
20:35 -3,6 -7,6   Windstille 6,4 1018,8 74 -
20:40 -3,7 -7,7   Windstille 4,8 1018,8 74 -
20:45 -3,8 -7,8   Windstille 4,8 1018,8 74 -
20:50 -3,9 -7,8   Windstille 4,8 1018,8 74 -
20:55 -4,0 -7,9   Windstille   1018,8 74 -
21:00 -4,1 -7,9   Windstille   1018,8 75 -
21:05 -4,1 -7,9 3,2 NW   1019,9 75 -
21:10 -4,2 -8,0   Windstille 4,8 1019,9 75 -
21:15 -4,3 -8,1   Windstille 4,8 1019,9 75 -
21:20 -4,3 -8,1   Windstille 4,8 1018,8 75 -
21:25 -4,4 -8,0   Windstille 4,8 1018,8 76 -
21:30 -4,4 -8,0 3,2 NW 4,8 1018,8 76 -
21:35 -4,5 -8,1 4,8 NW 4,8 1018,8 76 -
21:40 -4,5 -7,8   Windstille 4,8 1018,8 78 -
21:45 -4,6 -7,8   Windstille 4,8 1018,8 78 -
21:50 -4,6 -8,2   Windstille 4,8 1018,8 76 -
21:55 -4,7 -8,3   Windstille   1018,8 76 -
22:00 -4,8 -8,4   Windstille   1018,8 76 -
22:05 -4,8 -8,4 4,8 NW 4,8 1018,8 76 -
22:10 -4,8 -8,0   Windstille 6,4 1018,8 78 -
22:15 -4,8 -8,0   Windstille 6,4 1018,8 78 -
22:20 -4,7 -7,8   Windstille 6,4 1018,8 79 -
22:25 -4,7 -7,8   Windstille   1018,8 79 -
22:30 -4,7 -7,8   Windstille   1018,8 79 -
22:35 -4,6 -7,5   Windstille   1018,8 80 -
22:40 -4,6 -7,5   Windstille   1018,8 80 -
22:45 -4,7 -7,6   Windstille   1018,8 80 -
22:50 -4,7 -7,6   Windstille   1018,8 80 -
22:55 -4,7 -7,6   Windstille   1018,8 80 -
23:00 -4,7 -7,6   Windstille   1018,8 80 -
23:05 -4,8 -7,7   Windstille   1018,8 80 -
23:10 -4,8 -7,7   Windstille   1018,8 80 -
23:15 -4,8 -7,7   Windstille   1018,8 80 -
23:20 -4,9 -7,8   Windstille   1018,8 80 -
23:25 -5,0 -7,9   Windstille   1018,8 80 -
23:30 -5,1 -8,0   Windstille   1018,8 80 -
23:35 -5,1 -8,0   Windstille   1018,8 80 -
23:40 -5,1 -8,0   Windstille   1018,8 80 -
Täglich Zusammenfassung für Freitag 24 Januar 2020
Zeit Temp. ( °C ) Taupt. ( °C ) Wind ( km/h ) von Windböen ( km/h ) Luftdruck ( hPa ) Luftf.( % ) Regenrate ( cm )
Hoch2,3 -2,5 27,4 WSW ( 491/1181 ) 33,8 1020,9 90 -
Durchchnittswerte-3,9 -7,4 4,1 Windstille #176/285 7,1 1019,6 77 -
Tief-9,0 -11,8 -   0,0 1018,8 67 -
Täglich tabellarische Details für Freitag 24 Januar 2020
Zeit Temp. ( °C ) Taupt. ( °C ) Wind ( km/h ) von Windböen ( km/h ) Luftdruck ( hPa ) Luftf.( % ) Regenrate ( cm )
00:00 -7,0 -9,7   Windstille   1020,9 81 -
00:05 -7,2 -9,9   Windstille   1020,9 81 -
00:10 -7,2 -9,9   Windstille   1020,9 81 -
00:15 -7,3 -10,0   Windstille   1020,9 81 -
00:20 -7,3 -10,0   Windstille   1020,9 81 -
00:25 -7,3 -10,0   Windstille   1020,9 81 -
00:30 -7,4 -10,1   Windstille   1020,9 81 -
00:35 -7,4 -10,1   Windstille   1020,9 81 -
00:40 -7,4 -10,1   Windstille   1020,9 81 -
00:45 -7,5 -10,2   Windstille   1020,9 81 -
00:50 -7,5 -10,2   Windstille   1020,9 81 -
00:55 -7,5 -10,2   Windstille   1020,9 81 -
01:00 -7,6 -10,3   Windstille   1020,9 81 -
01:05 -7,7 -10,4   Windstille   1020,9 81 -
01:10 -7,8 -10,5   Windstille   1020,9 81 -
01:15 -7,8 -10,5   Windstille   1020,9 81 -
01:20 -7,8 -10,5   Windstille   1020,9 81 -
01:25 -8,0 -10,7   Windstille   1020,9 81 -
01:30 -8,0 -10,7   Windstille   1020,9 81 -
01:35 -8,0 -10,7   Windstille 4,8 1019,9 81 -
01:40 -8,1 -10,8   Windstille 4,8 1019,9 81 -
01:45 -8,1 -10,8   Windstille 3,2 1019,9 81 -
01:50 -8,1 -10,8   Windstille   1019,9 81 -
01:55 -8,1 -10,8   Windstille   1019,9 81 -
02:00 -8,2 -10,9   Windstille   1019,9 81 -
02:05 -8,2 -10,9   Windstille   1019,9 81 -
02:10 -8,3 -11,0   Windstille   1019,9 81 -
02:15 -8,3 -11,0   Windstille   1019,9 81 -
02:20 -8,4 -11,1   Windstille   1019,9 81 -
02:25 -8,4 -11,1   Windstille   1019,9 81 -
02:30 -8,5 -11,2   Windstille 4,8 1019,9 81 -
02:35 -8,6 -11,4   Windstille 4,8 1019,9 80 -
02:40 -8,7 -11,5   Windstille   1019,9 80 -
02:45 -8,7 -11,5   Windstille   1019,9 80 -
02:50 -8,7 -11,5   Windstille   1019,9 80 -
02:55 -8,8 -11,6   Windstille   1019,9 80 -
03:00 -8,8 -11,6   Windstille   1019,9 80 -
03:05 -8,9 -11,7   Windstille   1019,9 80 -
03:10 -9,0 -11,8   Windstille   1019,9 80 -
03:15 -8,9 -11,7   Windstille 3,2 1019,9 80 -
03:20 -9,0 -11,8   Windstille 3,2 1019,9 80 -
03:25 -9,0 -11,8   Windstille 3,2 1019,9 80 -
03:30 -8,9 -11,7   Windstille   1019,9 80 -
03:35 -8,9 -11,7   Windstille   1019,9 80 -
03:40 -8,8 -11,5   Windstille   1019,9 81 -
03:45 -8,9 -11,6   Windstille   1019,9 81 -
03:50 -8,7 -11,4   Windstille   1019,9 81 -
03:55 -8,7 -11,4   Windstille   1019,9 81 -
04:00 -8,7 -11,4   Windstille   1019,9 81 -
04:05 -8,6 -11,3   Windstille   1019,9 81 -
04:10 -8,5 -11,2   Windstille   1019,9 81 -
04:15 -8,5 -11,0   Windstille   1019,9 82 -
04:20 -8,5 -11,0   Windstille   1019,9 82 -
04:25 -8,6 -11,1   Windstille   1019,9 82 -
04:30 -8,5 -11,0   Windstille   1019,9 82 -
04:35 -8,5 -11,0   Windstille   1019,9 82 -
04:40 -8,5 -11,0   Windstille   1019,9 82 -
04:45 -8,5 -11,0   Windstille   1019,9 82 -
04:50 -8,5 -11,0   Windstille   1019,9 82 -
04:55 -8,5 -11,0   Windstille   1019,9 82 -
05:00 -8,5 -11,0   Windstille   1019,9 82 -
05:05 -8,5 -11,0   Windstille   1019,9 82 -
05:10 -8,5 -11,0   Windstille   1019,9 82 -
05:15 -8,6 -11,1   Windstille   1019,9 82 -
05:20 -8,6 -11,1   Windstille   1019,9 82 -
05:25 -8,6 -11,1   Windstille   1019,9 82 -
05:30 -8,6 -11,1   Windstille   1019,9 82 -
05:35 -8,6 -11,1   Windstille   1019,9 82 -
05:40 -8,6 -11,1   Windstille   1019,9 82 -
05:45 -8,6 -11,1   Windstille   1019,9 82 -
05:50 -8,6 -11,1   Windstille   1019,9 82 -
05:55 -8,6 -11,1   Windstille   1019,9 82 -
06:00 -8,7 -11,2   Windstille   1019,9 82 -
06:05 -8,7 -11,2   Windstille   1019,9 82 -
06:10 -8,7 -11,2   Windstille   1019,9 82 -
06:15 -8,7 -11,2   Windstille   1019,9 82 -
06:20 -8,7 -11,2   Windstille   1019,9 82 -
06:25 -8,7 -11,2   Windstille   1019,9 82 -
06:30 -8,6 -11,1 3,2 Norden   1019,9 82 -
06:35 -8,4 -10,9   Windstille 4,8 1019,9 82 -
06:40 -8,2 -10,6   Windstille 4,8 1019,9 83 -
06:45 -8,0 -10,4   Windstille 4,8 1019,9 83 -
06:50 -7,8 -10,2   Windstille   1019,9 83 -
06:55 -7,6 -10,0   Windstille   1019,9 83 -
07:00 -7,5 -9,7   Windstille   1019,9 84 -
07:05 -7,4 -9,6   Windstille   1019,9 84 -
07:10 -7,3 -9,5   Windstille   1019,9 84 -
07:15 -7,2 -9,4   Windstille   1019,9 84 -
07:20 -7,1 -9,3   Windstille   1019,9 84 -
07:25 -7,0 -9,2   Windstille   1019,9 84 -
07:30 -7,0 -9,2   Windstille   1019,9 84 -
07:35 -7,0 -9,2   Windstille   1019,9 84 -
07:40 -6,9 -9,1   Windstille   1019,9 84 -
07:45 -6,9 -9,1   Windstille   1019,9 84 -
07:50 -6,9 -9,1   Windstille   1019,9 84 -
07:55 -6,9 -9,1   Windstille   1019,9 84 -
08:00 -6,8 -9,0   Windstille   1019,9 84 -
08:05 -6,8 -9,0   Windstille   1019,9 84 -
08:10 -6,8 -9,0   Windstille   1019,9 84 -
08:15 -6,8 -9,0   Windstille   1019,9 84 -
08:20 -6,7 -8,9   Windstille   1020,9 84 -
08:25 -6,6 -8,9   Windstille   1020,9 84 -
08:30 -6,6 -8,9   Windstille 4,8 1020,9 84 -
08:35 -6,5 -8,5   Windstille 4,8 1020,9 86 -
08:40 -6,4 -8,4   Windstille 4,8 1020,9 86 -
08:45 -6,3 -8,3   Windstille   1020,9 86 -
08:50 -6,1 -8,1   Windstille   1020,9 86 -
08:55 -6,0 -8,0   Windstille   1020,9 86 -
09:00 -5,9 -7,9   Windstille   1020,9 86 -
09:05 -5,8 -7,8   Windstille   1020,9 86 -
09:10 -5,7 -7,7   Windstille   1020,9 86 -
09:15 -5,5 -7,5   Windstille   1020,9 86 -
09:20 -5,4 -7,4   Windstille   1020,9 86 -
09:25 -5,3 -7,3   Windstille   1020,9 86 -
09:30 -5,2 -7,2   Windstille 3,2 1020,9 86 -
09:35 -5,0 -7,0 4,8 SO 3,2 1020,9 86 -
09:40 -4,7 -6,5 3,2 SO 4,8 1020,9 87 -
09:45 -4,3 -6,0   Windstille 4,8 1020,9 88 -
09:50 -3,6 -5,1   Windstille 4,8 1020,9 89 -
09:55 -3,2 -4,6   Windstille 4,8 1020,9 90 -
10:00 -2,7 -4,1   Windstille   1020,9 90 -
10:05 -2,4 -3,8   Windstille   1020,9 90 -
10:10 -2,1 -3,5   Windstille   1020,9 90 -
10:15 -1,7 -3,1   Windstille   1020,9 90 -
10:20 -1,3 -2,9   Windstille   1020,9 89 -
10:25 -1,0 -2,6 4,8 Süden 4,8 1020,9 89 -
10:30 -0,6 -2,5 6,4 SW 4,8 1020,9 87 -
10:35 -0,3 -2,7 6,4 SW 6,4 1020,9 84 -
10:40 0,0 -2,5 3,2 WSW 6,4 1020,9 83 -
10:45 0,1 -2,9 6,4 WSW 6,4 1020,9 80 -
10:50 0,3 -2,9 6,4 WSW 6,4 1020,9 79 -
10:55 0,5 -3,2 4,8 WSW 8,0 1020,9 76 -
11:00 0,7 -3,2 6,4 SW 8,0 1020,9 75 -
11:05 0,8 -3,5 8,0 WSW 8,0 1020,9 73 -
11:10 0,9 -3,6 8,0 SW 9,7 1020,9 72 -
11:15 0,9 -4,0 9,7 WSW 12,9 1020,9 70 -
11:20 1,0 -3,9 12,9 WSW 14,5 1020,9 70 -
11:25 1,0 -4,0 12,9 WSW 14,5 1020,9 69 -
11:30 1,1 -4,0 9,7 SW 14,5 1020,9 69 -
11:35 1,1 -4,1 9,7 WNW 17,7 1019,9 68 -
11:40 1,1 -4,1 12,9 WSW 17,7 1019,9 68 -
11:45 1,2 -4,1 17,7 WNW 17,7 1019,9 68 -
11:50 1,3 -4,0 12,9 WSW 19,3 1019,9 68 -
11:55 1,3 -4,0 17,7 WSW 19,3 1019,9 68 -
12:00 1,3 -4,0 12,9 SW 19,3 1019,9 68 -
12:05 1,4 -3,9 12,9 WSW 22,5 1019,9 68 -
12:10 1,4 -3,9 12,9 Westen 24,1 1019,9 68 -
12:15 1,5 -3,8 12,9 WSW 24,1 1019,9 68 -
12:20 1,6 -3,7 12,9 WSW 24,1 1019,9 68 -
12:25 1,6 -3,7 9,7 SW 17,7 1019,9 68 -
12:30 1,6 -3,7 12,9 Westen 17,7 1019,9 68 -
12:35 1,6 -3,5 12,9 Westen 17,7 1019,9 69 -
12:40 1,7 -3,4 16,1 WSW 17,7 1019,9 69 -
12:45 1,9 -3,4 19,3 NW 17,7 1019,9 68 -
12:50 2,0 -3,3 27,4 NW 20,9 1019,9 68 -
12:55 2,0 -3,3 19,3 Westen 27,4 1019,9 68 -
13:00 2,0 -3,5 12,9 SW 27,4 1019,9 67 -
13:05 2,1 -3,4 19,3 WSW 27,4 1019,9 67 -
13:10 2,1 -3,4 17,7 WSW 33,8 1019,9 67 -
13:15 2,0 -3,5 17,7 Westen 33,8 1019,9 67 -
13:20 2,1 -3,4 20,9 WNW 33,8 1019,9 67 -
13:25 2,2 -3,3 12,9 WSW 29,0 1019,9 67 -
13:30 2,2 -3,3 16,1 WSW 27,4 1019,9 67 -
13:35 2,3 -3,2 12,9 NW 24,1 1018,8 67 -
13:40 2,3 -3,2 14,5 Westen 27,4 1018,8 67 -
13:45 2,3 -3,2 20,9 WNW 27,4 1018,8 67 -
13:50 2,3 -3,2 20,9 SW 24,1 1018,8 67 -
13:55 2,3 -3,2 19,3 NW 24,1 1018,8 67 -
14:00 2,3 -3,2 17,7 WSW 24,1 1018,8 67 -
14:05 2,3 -3,2 17,7 Westen 24,1 1018,8 67 -
14:10 2,2 -3,3 17,7 Westen 24,1 1018,8 67 -
14:15 2,2 -3,3 17,7 WSW 24,1 1018,8 67 -
14:20 2,2 -3,3 20,9 Westen 24,1 1018,8 67 -
14:25 2,2 -3,3 14,5 WSW 24,1 1018,8 67 -
14:30 2,2 -3,3 17,7 WSW 24,1 1018,8 67 -
14:35 2,2 -3,3 20,9 WSW 32,2 1018,8 67 -
14:40 2,2 -3,3 17,7 Westen 32,2 1018,8 67 -
14:45 2,1 -3,4 12,9 WSW 32,2 1018,8 67 -
14:50 2,0 -3,5 16,1 SW 27,4 1018,8 67 -
14:55 2,0 -3,5 20,9 SSW 24,1 1018,8 67 -
15:00 1,9 -3,6 16,1 WSW 24,1 1018,8 67 -
15:05 1,8 -3,7 17,7 Westen 27,4 1018,8 67 -
15:10 1,8 -3,5 14,5 WSW 27,4 1018,8 68 -
15:15 1,8 -3,7 16,1 WSW 27,4 1018,8 67 -
15:20 1,7 -3,6 17,7 WSW 20,9 1018,8 68 -
15:25 1,7 -3,6 16,1 WSW 20,9 1018,8 68 -
15:30 1,6 -3,7 17,7 WSW 17,7 1018,8 68 -
15:35 1,6 -3,7 12,9 WSW 22,5 1018,8 68 -
15:40 1,5 -3,8 9,7 Westen 22,5 1018,8 68 -
15:45 1,4 -3,9 8,0 WNW 22,5 1018,8 68 -
15:50 1,4 -3,9 9,7 WNW 17,7 1018,8 68 -
15:55 1,3 -4,0 8,0 Westen 17,7 1018,8 68 -
16:00 1,2 -4,1 14,5 Westen 16,1 1018,8 68 -
16:05 1,0 -4,2 12,9 Westen 17,7 1018,8 68 -
16:10 0,9 -4,3 9,7 WSW 17,7 1018,8 68 -
16:15 0,7 -4,5 8,0 Westen 17,7 1018,8 68 -
16:20 0,6 -4,6 9,7 Westen 16,1 1018,8 68 -
16:25 0,5 -4,7 8,0 WSW 12,9 1018,8 68 -
16:30 0,3 -4,7 9,7 WNW 12,9 1018,8 69 -
16:35 0,1 -4,9 9,7 WSW 16,1 1018,8 69 -
16:40 0,0 -5,0 6,4 WNW 16,1 1018,8 69 -
16:45 0,0 -5,0 6,4 WNW 16,1 1018,8 69 -
16:50 -0,2 -5,2 6,4 NW 14,5 1018,8 69 -
16:55 -0,3 -5,3 4,8 Westen 12,9 1018,8 69 -
17:00 -0,5 -5,5 4,8 WSW 11,3 1018,8 69 -
17:05 -0,6 -5,6 3,2 WNW 8,0 1018,8 69 -
17:10 -0,7 -5,5   Windstille 8,0 1018,8 70 -
17:15 -0,9 -5,7 4,8 WSW 8,0 1018,8 70 -
17:20 -1,0 -5,6   Windstille 6,4 1018,8 71 -
17:25 -1,1 -5,7 3,2 WSW 6,4 1018,8 71 -
17:30 -1,3 -5,9   Windstille 6,4 1018,8 71 -
17:35 -1,4 -6,0   Windstille 6,4 1018,8 71 -
17:40 -1,6 -6,2   Windstille 6,4 1018,8 71 -
17:45 -1,7 -6,3 4,8 WSW 4,8 1018,8 71 -
17:50 -1,9 -6,5 6,4 NW 6,4 1018,8 71 -
17:55 -1,9 -6,3 6,4 Westen 6,4 1018,8 72 -
18:00 -2,0 -6,4 4,8 Westen 8,0 1018,8 72 -
18:05 -2,2 -6,6 4,8 Westen 8,0 1018,8 72 -
18:10 -2,3 -6,7 4,8 Westen 8,0 1018,8 72 -
18:15 -2,4 -6,8 4,8 WNW 8,0 1018,8 72 -
18:20 -2,5 -6,9   Windstille 9,7 1018,8 72 -
18:25 -2,6 -6,9 3,2 Westen 9,7 1018,8 72 -
18:30 -2,5 -6,9 4,8 NW 9,7 1018,8 72 -
18:35 -2,5 -6,9   Windstille 6,4 1018,8 72 -
18:40 -2,6 -6,9   Windstille 6,4 1018,8 72 -
18:45 -2,7 -7,2   Windstille 6,4 1018,8 71 -
18:50 -2,9 -7,4   Windstille 4,8 1018,8 71 -
18:55 -3,0 -7,5   Windstille   1018,8 71 -
19:00 -3,1 -7,6   Windstille   1018,8 71 -
19:05 -3,2 -7,5   Windstille   1018,8 72 -
19:10 -3,4 -7,7   Windstille   1018,8 72 -
19:15 -3,5 -7,8   Windstille   1018,8 72 -
19:20 -3,6 -7,9   Windstille   1018,8 72 -
19:25 -3,7 -8,0 6,4 SW   1018,8 72 -
19:30 -3,7 -7,8 4,8 WSW 6,4 1018,8 73 -
19:35 -3,6 -7,7 4,8 NW 8,0 1018,8 73 -
19:40 -3,3 -7,3 4,8 Norden 8,0 1018,8 74 -
19:45 -3,1 -7,1 4,8 NW 9,7 1018,8 74 -
19:50 -3,2 -7,2   Windstille 9,7 1018,8 74 -
19:55 -3,2 -7,2   Windstille 9,7 1018,8 74 -
20:00 -3,3 -7,4 4,8 WNW 8,0 1018,8 73 -
20:05 -3,4 -7,5 3,2 WNW 4,8 1018,8 73 -
20:10 -3,5 -7,6 4,8 NO 6,4 1018,8 73 -
20:15 -3,5 -7,5 3,2 NO 6,4 1018,8 74 -
20:20 -3,5 -7,5 3,2 NW 6,4 1018,8 74 -
20:25 -3,5 -7,5   Windstille 6,4 1018,8 74 -
20:30 -3,6 -7,6   Windstille 6,4 1018,8 74 -
20:35 -3,6 -7,6   Windstille 6,4 1018,8 74 -
20:40 -3,7 -7,7   Windstille 4,8 1018,8 74 -
20:45 -3,8 -7,8   Windstille 4,8 1018,8 74 -
20:50 -3,9 -7,8   Windstille 4,8 1018,8 74 -
20:55 -4,0 -7,9   Windstille   1018,8 74 -
21:00 -4,1 -7,9   Windstille   1018,8 75 -
21:05 -4,1 -7,9 3,2 NW   1019,9 75 -
21:10 -4,2 -8,0   Windstille 4,8 1019,9 75 -
21:15 -4,3 -8,1   Windstille 4,8 1019,9 75 -
21:20 -4,3 -8,1   Windstille 4,8 1018,8 75 -
21:25 -4,4 -8,0   Windstille 4,8 1018,8 76 -
21:30 -4,4 -8,0 3,2 NW 4,8 1018,8 76 -
21:35 -4,5 -8,1 4,8 NW 4,8 1018,8 76 -
21:40 -4,5 -7,8   Windstille 4,8 1018,8 78 -
21:45 -4,6 -7,8   Windstille 4,8 1018,8 78 -
21:50 -4,6 -8,2   Windstille 4,8 1018,8 76 -
21:55 -4,7 -8,3   Windstille   1018,8 76 -
22:00 -4,8 -8,4   Windstille   1018,8 76 -
22:05 -4,8 -8,4 4,8 NW 4,8 1018,8 76 -
22:10 -4,8 -8,0   Windstille 6,4 1018,8 78 -
22:15 -4,8 -8,0   Windstille 6,4 1018,8 78 -
22:20 -4,7 -7,8   Windstille 6,4 1018,8 79 -
22:25 -4,7 -7,8   Windstille   1018,8 79 -
22:30 -4,7 -7,8   Windstille   1018,8 79 -
22:35 -4,6 -7,5   Windstille   1018,8 80 -
22:40 -4,6 -7,5   Windstille   1018,8 80 -
22:45 -4,7 -7,6   Windstille   1018,8 80 -
22:50 -4,7 -7,6   Windstille   1018,8 80 -
22:55 -4,7 -7,6   Windstille   1018,8 80 -
23:00 -4,7 -7,6   Windstille   1018,8 80 -
23:05 -4,8 -7,7   Windstille   1018,8 80 -
23:10 -4,8 -7,7   Windstille   1018,8 80 -
23:15 -4,8 -7,7   Windstille   1018,8 80 -
23:20 -4,9 -7,8   Windstille   1018,8 80 -
23:25 -5,0 -7,9   Windstille   1018,8 80 -
23:30 -5,1 -8,0   Windstille   1018,8 80 -
23:35 -5,1 -8,0   Windstille   1018,8 80 -
23:40 -5,1 -8,0   Windstille   1018,8 80 -

Lade ein Kopie deiner Daten  here

Meine Wetterdaten gespeichert auf Weather Underground. Script entwickelt von Jim McMurry. Angepasst für das Template von Leuven-Template.eu